Current Weather Network in the world 
cooperate with our weather  network
  
 
country list  
Weather now
23-09-20  13:21
Arsago Seprio (VA)  (Italy)  
21.4  C.     5khm;

 

If you want to participate in our meteorological network, fill in form data, and send us an  e_mail and we will activate your weather station in your country. You would to send your weather reporting, one or more times a day, through our website .. for examples insert
       
manual meteorological reports today      
Weather reporting today :
Romania: stazione meteo: Amara
12:41
PAESE CITTA'DATAORAT C.(m)VENTO (Km/h)PAPREC.STATO
AustriaInnsbruck23-09-2012:20 UTC182.57 ENE1011
AustriaLinz23-09-2012:20 UTC174.63 W1009
AustriaVienna/Wien23-09-2012:20 UTC257.72 SSE1007
AustriaSalisburgo/Salzsbu23-09-2012:20 UTC171.54 WNW1010pioggia
Belarus/BielorussiaMinsk23-09-2012:00 UTC234 SSW1013
Belarus/BielorussiaRiga23-09-2012:20 UTC247.2 S1007
BulgariaSofia23-09-2012:00 UTC231.03 1015
Belgium/BelgioBruxelles23-09-2012:20 UTC226.17 SW1004
Croatia/CroaziaZagabria/Zagreb23-09-2012:00 UTC253.6 SW1009
Croatia/CroaziaDubrovnik23-09-2012:00 UTC174.63 E1014
Croatia/CroaziaSpalato/Split23-09-2012:00 UTC252.06 E1011
Croatia/CroaziaPula23-09-2012:00 UTC235.14 SW1010
Croatia/CroaziaZara/Zadar23-09-2012:00 UTC243.6 SSW1012
Croazia/CroatiaFiume/Rijeka23-09-2012:00 UTC214.63 SSE1010
Czech RepublicPraga23-09-2012:00 UTC231.54 SW1007
SlovakiaBratislava23-09-2012:00 UTC245.14 S1008
BosniaSarajevo23-09-2012:00 UTC234.12 SSE1012
Denmark/DanimarcaAlborg23-09-2012:20 UTC184.63 S1000
Denmark/DanimarcaEsbjerg23-09-2012:20 UTC196.69 SW1001
Denmark/DanimarcaCopenaghen/Koeben.23-09-2012:20 UTC215.14 S1003
Finland/FinlandiaHelsinky23-09-2015:50 UTC-23.09 NE1021
Finland/FinlandiaOulu23-09-2012:20 UTC114.12 SSE999
France/FranciaParigi/Paris23-09-2012:00 UTC217.72 SSW1006
France/FranciaNizza/Nices23-09-2012:00 UTC244.63 S1010
France/FranciaTrasburgo23-09-2012:00 UTC235.66 W1009
France/FranciaMontepellier23-09-2012:00 UTC232.57 SE1011
France/FranciaLione/Lyon23-09-2012:00 UTC241.54 1010
France/FranciaLilla23-09-2012:00 UTC208.75 SSW1004
France/FranciaBrest23-09-2012:00 UTC164.63 WNW1005
France/FranciaBordeaux23-09-2012:00 UTC255.66 SW1008
France/FranciaMarsiglia/Marsei23-09-2012:00 UTC242.57 W1011
Germany/GermaniaAmburgo-fink23-09-2012:20 UTC234.12 SW1004
Germany/GermaniaAmburgo-fuhl23-09-2012:20 UTC234.12 SW1003
Germany/GermaniaBerlin-sch23-09-2012:20 UTC273.6 SW1004
Germany/GermaniaBerlino-tegel23-09-2012:20 UTC274.63 WSW1004
Germany/GermaniaMonaco23-09-2012:20 UTC181.54 1010
Germany/GermaniaNonimberga23-09-2012:20 UTC212.57 SE1008
Germany/GermaniaFrancoforte23-09-2012:20 UTC245.66 SSW1007
Germany/GermaniaStoccarda23-09-2012:20 UTC200.51 1009
Germany/GermaniaHannover23-09-2012:20 UTC253.6 SW1004
Germany/GermaniaDusseldorf23-09-2012:20 UTC245.66 SW1005
ISReykjavik23-09-2012:00 UTC58.23 NNE999
Netherlands/Paesi baAmsterdam23-09-2012:25 UTC208.23 SSW1002
Netherlands/Paesi BaRotterdam23-09-2012:25 UTC206.69 SSW1002
Netherlands/Paesi BaGroninga/Groningen23-09-2012:25 UTC217.2 SSW1002
Netherlands/Paesi baMaastrich23-09-2012:25 UTC238.75 SW1005
Norway-NorvegiaOslo23-09-2012:20 UTC156.17 S997
Norway-NorvegiaTrondheim23-09-2012:20 UTC1012.35 WNW997
Norway-NorvegiaBergen23-09-2012:20 UTC114.63 NNW999
Norway-NorvegiaBodo23-09-2012:20 UTC157.72 S985
Poland/PoloniaVarsavia/Warsawa23-09-2012:00 UTC274.12 SSE1009
Portugal-PortogalloLisbona/Lisboa23-09-2012:00 UTC235.14 SW1015
Portugal-PortogalloFaro-airport23-09-2012:00 UTC234.12 WSW1016
Portugal-PortogalloPorto Santo23-09-2012:00 UTC259.26 SSW1014
Portugal-PortogalloPorto/Pedras Rubra23-09-2012:00 UTC213.6 W1014
RUSMosca23-09-2012:00 UTC213 WSW1016
Russian-RussiaSt.Peterburg23-09-2012:00 UTC203 S1009
RusVladivostok23-09-2012:00 UTC132 N1023
RomaniaBucarest23-09-2012:00 UTC262.57 ENE1014
Spain/SpagnaMadrid/Barajas23-09-2012:00 UTC235.66 WSW1014
Spain/SpagnaMadrid/Cuatro23-09-2012:00 UTC237.2 SW1015
Spain/SpagnaBarcellona23-09-2012:00 UTC257.2 SW1011
Spain/SpagnaLa Couruna23-09-2012:00 UTC203.6 NNW1013
Spain/SpagnaAlmeria23-09-2012:00 UTC244.12 SSW1013
Spain/SpagnaValencia23-09-2012:00 UTC305.14 SW1012
SpainIbiza23-09-2012:00 UTC275.14 SW1012
Sweden-SveziaStockholm/Stoccolm23-09-2012:20 UTC204.63 S1002
Sweden-SveziaGoteborg23-09-2010:20 UTC-20 N1012
Sweden-SveziaMalmo23-09-2012:20 UTC225.14 SSW1003
Sweden-SveziaKiruna23-09-2012:20 UTC64.63 S992
Sweden-SveziaSundsvall23-09-2012:20 UTC184.12 SSW996
Sweden-SveziaJongkoping23-09-2012:20 UTC196.69 SSW1002
Sweden-SveziaJongkoping23-09-2012:20 UTC196.69 SSW1002
Sweden-SveziaJongkoping23-09-2012:20 UTC196.69 SSW1002
Sweden-SveziaJongkoping23-09-2012:20 UTC196.69 SSW1002
Sweden-SveziaJongkoping23-09-2012:20 UTC196.69 SSW1002
Sweden-SveziaJongkoping23-09-2012:20 UTC196.69 SSW1002
Ukraine/UcrainaLvov/l'viv23-09-2012:00 UTC263 SSE1012
Ukraine/UcrainaKijev23-09-2012:00 UTC243 SSW1016
United KingdomBelfast-airport23-09-2012:20 UTC122.57 NNW1002
United KingdomBirmingham23-09-2012:20 UTC123.09 WNW999pioggia
United KingdomEdimburgo/Edimburg23-09-2012:20 UTC123.09 ENE1001
United KingdomLeeds23-09-2010:50 UTC105.66 N998pioggia
United KingdomLiverpool23-09-2012:20 UTC144.12 WNW999
United KingdomBristol23-09-2012:20 UTC145.14 WSW1000
United KingdomPlymouth23-09-2015:20 UTC66.17 NW1018
GBLondra23-09-2012:20 UTC186.17 SW1000
UngheriaBudapest23-09-2012:00 UTC264.12 SSE1009
United KingdomManchester-airport23-09-2012:20 UTC134.63 NW998
yugoslaviaBelgrado/Beograd23-09-2012:00 UTC273.6 SSW1011
23-09-2012:20 UTC274.12 SSW1013
 

 .

. .
. . . .

informazioni e contatti

www.meteorete.it
by.A.Santagostini C.2001-2016
P.I.05250380960

Partecipa alla rete meteorologica

  
 Cerca Meteo  
Stazioni meteo AM
Satellite e Radar
Rete in GooGle Maps
stazioni meteorete
Schermo solare Meteorete e Davis
stazioni automatiche
stazioni AM
rete internazionale
stazioni estere
archivio articoli
citta fredde

i nostri amici
negozio meteorete
dati storici stazioni
clima e riscaldamento globale
progetto meteo nelle scuole
temperatura Media in Italia 1951-2000
galleria di immagini
noleggio webcam
servizi meteo gratuiti
meteorologia per le scuole elementari